Theta_e
314 314 316 317 317 316 318 318 318 316 317 316 313 311 309 308 306 305 304 303 303 301 300 300 300 300 299 299 298 296 294 295 293 295 296 296 297 299 296 298 294 296 297
312 314 314 316 317 317 317 318 317 316 317 316 313 311 309 307 305 304 303 302 302 301 300 300 300 300 299 298 297 294 293 294 294 295 297 296 297 297 293 296 295 297 295
314 314 314 315 316 317 317 317 317 316 316 315 311 309 307 306 304 303 302 301 300 300 300 300 300 299 298 296 294 292 292 293 293 296 296 294 295 295 296 294 296 294 294
314 314 314 315 315 316 317 317 316 316 316 313 310 309 306 304 303 302 301 300 300 300 300 300 298 297 296 293 292 291 291 291 291 292 293 294 295 294 294 295 293 294 294
314 314 314 315 315 316 316 317 316 316 315 313 312 310 307 304 302 301 301 300 300 300 299 298 297 295 293 292 291 291 291 290 290 290 291 291 290 292 294 292 293 292 292
313 314 315 315 315 315 316 316 316 316 315 313 312 311 307 304 302 301 300 300 301 301 300 298 295 292 291 291 291 291 291 291 290 290 290 290 290 291 291 290 291 291 292
313 314 314 314 314 314 315 316 316 316 316 315 312 311 307 305 304 301 301 301 301 300 299 296 293 292 291 291 291 291 291 291 290 290 290 290 290 290 290 290 290 290 290
312 314 314 314 314 313 314 314 315 315 313 313 310 309 307 305 302 301 301 302 301 299 296 293 292 291 291 291 291 291 291 291 290 290 290 290 290 289 289 289 290 289 289
312 314 314 314 314 312 312 313 313 314 313 312 311 308 305 303 301 302 302 300 298 295 293 292 292 291 291 291 291 291 291 290 290 290 289 289 289 289 289 289 289 289 289
312 313 314 313 312 310 309 311 313 312 310 311 307 304 303 302 302 301 299 297 295 292 292 292 291 291 290 290 290 290 289 289 289 289 289 289 289 289 289 289 288 288 288
313 313 313 312 310 307 306 308 309 307 305 305 304 303 302 301 299 297 296 293 292 292 291 290 290 290 289 289 289 289 289 289 289 289 288 288 288 288 288 288 288 288 288
312 313 312 309 305 305 304 304 304 304 303 303 302 301 299 297 296 294 293 292 292 290 290 289 289 289 288 288 288 289 288 288 288 288 288 288 288 288 287 287 287 287 287
312 311 309 306 305 303 303 302 302 302 302 301 300 297 296 295 293 293 292 291 290 289 289 288 288 288 288 288 288 288 288 288 288 288 288 288 288 287 287 287 287 287 287
311 310 308 306 304 302 301 300 300 301 299 298 297 295 293 293 292 291 290 289 289 288 288 288 288 288 288 287 287 288 288 288 288 288 288 288 287 287 287 287 287 287 288
310 309 306 303 302 300 299 298 298 298 298 296 294 293 293 291 290 289 289 288 288 288 288 288 288 287 287 287 288 288 288 288 288 288 288 287 287 287 287 288 288 288 288
308 305 302 300 299 298 296 295 295 296 296 294 293 292 290 289 289 288 288 288 288 288 287 287 286 286 286 286 288 288 288 288 288 287 287 287 287 286 286 286 287 287 288
305 302 300 298 297 295 294 293 294 294 293 292 290 289 289 288 288 288 288 287 287 287 286 286 286 286 286 286 288 288 288 287 287 287 286 285 285 285 285 285 286 286 287
302 300 297 295 294 292 292 293 293 292 291 289 289 288 288 288 287 287 287 287 286 286 286 286 286 286 286 286 286 287 287 286 286 285 285 285 285 285 285 286 286 286 286
299 296 294 292 291 291 291 292 290 289 289 288 288 288 288 287 287 287 286 286 286 285 286 285 285 285 285 285 286 286 285 285 284 285 284 285 285 285 286 287 287 286 286
292 291 291 290 289 289 290 290 288 288 288 288 287 287 287 287 286 286 286 285 285 285 285 285 285 285 284 285 284 285 284 284 284 284 285 285 285 285 286 287 285 284 284
290 289 290 288 287 289 289 288 287 287 287 287 287 286 286 286 286 286 285 285 285 285 284 285 284 284 284 283 284 284 285 285 285 285 285 285 285 286 285 285 284 284 285
288 288 287 286 287 288 288 287 287 287 287 286 286 286 286 285 285 285 285 285 285 284 284 284 284 284 283 283 283 284 285 285 286 285 285 285 285 284 283 283 284 284 284
287 287 286 286 287 287 287 286 286 286 286 286 286 285 285 285 285 285 284 284 284 284 284 284 284 283 283 283 282 284 285 285 285 284 284 284 283 283 282 282 283 283 282
286 286 286 285 285 286 286 286 286 286 286 285 284 284 285 284 284 284 283 284 284 283 283 283 283 283 283 282 283 284 285 284 284 283 282 282 282 282 282 282 281 282 282
285 285 285 285 285 286 285 285 285 285 284 284 284 284 284 283 283 283 283 283 283 283 283 283 283 283 283 283 284 284 284 284 283 284 281 281 281 281 281 281 281 281 281
285 285 285 285 285 285 285 285 284 284 284 283 283 284 283 282 282 283 282 281 282 282 282 282 282 283 283 283 284 283 283 282 282 281 280 280 281 281 281 281 281 281 281
Wind_Speed
17 24 32 34 32 33 32 32 33 36 37 37 35 32 29 24 21 18 16 15 14 13 12 12 10 9 11 12 13 15 17 19 23 16 15 9 11 3 21 11 22 19 20
13 21 27 34 36 36 35 34 37 38 38 37 34 32 29 24 22 18 16 15 14 13 12 10 10 9 8 10 12 15 15 12 18 12 5 4 6 7 24 11 15 14 21
21 19 25 31 33 36 38 37 38 38 38 37 34 32 27 24 23 20 18 16 14 13 11 9 8 7 7 9 11 13 14 13 13 12 8 3 2 13 4 13 10 21 23
22 21 26 30 34 36 38 35 36 38 39 39 37 35 31 28 24 23 20 17 14 12 10 8 6 5 6 8 10 10 11 11 13 7 10 4 7 2 5 12 23 17 23
24 24 27 36 36 39 42 37 38 38 38 37 35 33 30 25 25 22 21 18 15 11 8 5 4 4 5 7 8 9 10 10 10 10 12 11 15 7 6 6 18 30 25
21 21 31 32 32 37 40 39 39 38 35 34 34 31 31 27 26 24 22 19 15 11 7 3 2 4 5 7 8 9 10 10 11 11 11 13 8 13 10 5 14 13 20
21 22 22 28 31 35 38 39 40 36 34 33 35 33 32 30 29 27 24 21 17 12 7 2 1 4 6 7 8 10 11 12 13 13 15 16 17 19 21 19 16 10 22
24 26 25 31 33 35 38 35 37 35 34 33 34 31 30 30 27 25 22 19 15 10 6 2 3 5 6 7 9 11 12 13 14 15 16 19 20 21 22 21 17 11 16
25 25 25 33 34 34 36 39 38 38 35 34 32 31 31 29 27 24 20 17 12 8 4 2 4 6 7 9 10 12 13 14 16 17 18 20 22 22 22 23 24 16 10
23 22 22 31 33 34 35 40 41 38 34 33 33 33 30 28 26 23 19 14 10 6 3 4 5 7 9 10 11 13 14 15 17 19 20 21 22 21 21 21 25 27 22
23 22 20 30 32 32 36 37 38 36 35 36 34 33 31 27 23 19 15 11 8 4 3 4 6 8 10 11 13 14 16 16 18 19 19 20 20 22 24 25 26 26 23
19 19 19 29 30 32 33 35 37 39 39 37 35 32 28 25 21 17 13 9 5 3 2 4 7 9 11 12 13 15 16 18 18 19 20 22 22 24 25 26 26 25 27
19 18 18 19 28 30 31 33 37 39 37 36 33 29 26 22 18 14 10 6 4 2 3 6 8 11 12 13 14 16 15 17 18 20 21 22 23 25 26 27 27 26 26
20 19 18 16 28 30 32 33 35 39 37 34 31 27 23 19 15 11 8 4 2 3 6 7 9 10 12 14 15 15 18 18 19 20 20 22 24 24 26 27 26 25 25
18 18 18 16 25 28 29 31 35 38 36 32 28 24 20 16 13 9 6 2 2 4 7 8 9 12 13 14 15 16 18 20 21 21 22 22 23 22 23 25 26 25 24
18 17 18 17 24 29 29 32 35 37 34 30 26 22 18 14 11 7 4 1 3 5 7 9 11 13 13 13 14 16 18 19 21 21 22 22 24 23 24 26 25 26 28
17 18 18 18 26 29 33 32 36 35 31 27 23 19 16 12 8 5 1 2 4 6 8 10 12 12 13 13 14 15 19 19 18 19 21 24 22 26 27 26 25 25 25
18 17 17 24 27 30 32 37 36 32 28 25 21 17 13 10 6 2 1 2 4 6 10 11 11 12 12 12 16 16 19 18 18 21 20 24 26 25 25 28 27 27 29
16 20 27 29 30 32 36 37 33 30 26 22 18 14 10 7 4 1 1 2 5 7 9 10 12 11 11 15 14 19 20 21 20 20 22 23 25 25 26 28 27 27 28
27 28 29 31 33 31 37 35 31 27 23 19 15 10 7 4 3 1 1 3 5 7 8 10 9 10 14 14 18 16 18 20 20 21 22 23 23 26 25 27 26 24 28
30 32 32 29 32 35 35 31 27 24 19 15 12 8 6 4 2 1 2 3 5 7 8 9 11 12 13 16 16 16 18 19 20 20 21 24 24 25 27 27 24 27 29
29 33 31 28 32 33 32 28 24 19 16 13 10 8 5 3 1 1 1 2 6 8 9 10 11 13 13 16 16 17 16 19 21 22 24 26 21 24 22 22 22 25 24
28 30 31 29 30 28 28 26 20 16 13 11 9 6 4 3 3 2 3 6 6 6 9 11 12 14 16 16 17 18 19 19 20 22 21 21 21 20 20 20 23 23 26
28 30 30 26 26 24 22 21 16 13 11 10 7 6 6 5 3 4 4 4 4 8 11 10 12 14 15 18 18 22 20 19 21 21 18 19 18 19 19 21 23 25 23
25 27 26 24 25 22 19 16 14 11 10 8 7 6 5 4 4 4 3 5 7 9 9 10 12 13 15 17 18 19 20 21 20 18 20 21 21 19 20 21 22 22 23
26 25 25 27 23 20 18 14 11 8 8 8 6 5 2 2 2 3 6 6 6 7 7 8 10 12 11 15 16 17 18 20 18 17 19 17 17 17 19 20 22 23 23
Wind_Direction
183 180 181 180 181 182 180 176 168 163 159 157 153 150 146 147 147 143 142 142 137 131 126 115 101 80 62 47 35 25 20 18 12 6 0 8 346 110 359 12 357 348 352
173 181 177 178 181 183 182 179 174 169 167 166 163 159 154 151 149 146 144 144 145 138 127 116 101 83 62 44 30 21 21 22 23 7 349 2 343 332 335 350 354 347 344
183 182 179 179 177 181 182 179 179 174 172 171 163 155 154 149 146 149 147 147 148 141 133 121 103 81 55 40 26 20 19 14 20 40 46 359 313 332 317 341 345 338 337
187 179 180 178 177 181 183 181 179 177 174 171 168 165 161 158 161 157 152 151 152 144 136 124 101 71 45 30 25 18 15 11 13 32 5 356 301 330 325 316 326 329 330
182 182 183 179 176 178 185 184 180 176 174 175 178 175 171 170 162 159 154 153 152 149 140 128 94 54 25 20 13 9 10 6 0 356 346 341 325 284 250 284 317 321 323
186 184 183 175 171 176 181 185 181 179 178 180 183 184 177 169 162 162 161 161 161 159 156 142 58 22 8 5 2 353 349 350 343 338 332 327 319 305 305 284 300 286 303
185 178 177 176 169 169 175 182 181 178 182 186 187 186 179 177 173 170 167 167 170 170 174 189 345 357 357 352 343 337 334 334 328 326 319 317 309 307 306 297 295 286 307
187 182 175 175 171 169 171 175 178 177 179 183 181 183 183 179 175 172 173 174 176 177 186 209 326 336 340 335 329 324 324 322 321 318 316 313 312 315 313 307 301 304 301
180 177 171 171 170 168 168 173 174 174 176 178 181 182 176 172 169 168 170 172 176 180 189 263 307 323 327 325 319 316 317 315 317 316 315 313 313 314 314 312 311 296 305
173 171 168 167 169 163 163 169 174 172 175 177 173 170 168 167 165 165 166 170 173 182 218 280 308 319 320 319 315 315 317 316 316 316 315 313 316 315 316 316 312 307 293
172 166 161 163 160 154 156 160 168 168 167 168 168 162 159 162 163 164 164 169 173 195 247 292 310 316 317 318 317 316 318 318 317 316 316 314 317 315 314 315 311 307 301
159 157 153 153 150 149 149 153 159 162 164 162 159 157 158 159 160 160 162 169 183 212 271 307 316 318 318 320 321 321 319 319 319 317 316 315 317 314 315 314 308 303 302
152 148 148 151 149 146 145 148 157 160 160 158 157 157 157 158 157 158 162 172 191 245 305 318 324 323 323 323 322 322 322 319 315 314 315 315 316 313 312 309 305 300 296
151 150 151 152 147 145 145 146 153 161 159 159 158 155 157 156 155 157 160 174 227 313 322 327 324 322 323 325 327 323 319 316 315 316 315 315 314 309 307 306 303 300 294
153 153 148 144 139 137 139 142 149 157 159 157 156 154 152 152 152 153 158 182 312 325 326 325 323 324 328 331 324 322 319 318 318 317 316 317 315 306 303 302 301 300 298
152 145 142 137 137 140 140 141 147 155 159 154 151 150 150 150 150 151 157 279 321 324 329 331 331 328 330 327 325 322 319 320 319 318 319 319 317 310 305 303 300 297 296
147 141 141 138 140 140 141 140 148 154 152 149 148 148 149 148 148 146 162 315 334 336 338 333 330 331 330 332 327 325 319 321 321 319 320 316 310 312 315 311 304 301 298
141 138 133 131 133 132 135 143 148 148 146 144 145 147 149 146 144 151 32 346 336 344 335 331 332 329 336 337 328 323 324 322 321 319 319 315 314 316 312 307 303 299 296
132 128 129 127 127 131 139 143 144 143 142 142 144 146 146 143 137 88 20 349 338 336 332 330 331 333 335 332 328 322 321 321 323 321 315 314 310 312 311 314 316 314 310
125 124 125 125 126 134 142 139 140 141 139 142 141 137 136 127 116 111 13 342 335 329 326 328 337 338 329 328 327 328 325 322 319 317 310 314 312 314 316 320 318 315 311
122 123 125 124 129 141 144 134 138 135 136 136 134 131 126 119 113 32 336 336 326 324 334 336 337 332 326 326 328 328 325 322 316 314 312 317 317 319 322 318 317 310 314
119 120 117 118 134 142 140 133 129 132 133 133 129 122 114 104 86 313 356 335 335 340 339 333 329 331 331 333 329 325 324 322 320 320 318 321 324 326 325 324 320 321 322
115 117 116 115 131 136 137 129 129 135 132 125 116 114 108 107 109 86 1 350 349 348 341 329 329 330 337 336 336 331 329 325 322 321 322 323 324 324 326 327 326 327 329
115 117 114 112 117 128 127 123 127 128 127 124 119 115 110 105 55 0 359 2 6 341 335 334 331 330 332 335 336 335 337 332 334 330 333 331 333 336 328 328 330 329 323
109 112 113 112 117 121 118 123 127 133 126 121 113 105 104 42 23 31 36 4 342 336 333 335 333 335 330 331 332 337 337 333 331 328 335 341 337 326 328 328 328 331 333
111 106 110 118 123 124 124 124 121 117 116 113 114 119 93 48 35 25 355 8 358 350 348 339 335 333 330 333 339 338 339 334 328 337 335 323 324 324 328 328 325 325 323